This is the latest recevied weather packets stored in our database for station/object LZ1HCO-25. If no packets are shown the sender has not sent any weather packets the latest 10 day(s).
| Time | Temp. | Humidity | Pressure | Rain* | Wind** | Luminosity | Snow |
|---|---|---|---|---|---|---|---|
| 1778232191 | 22.22° C | 89% | 969 hPa | - | - | 0 W/m² | - |
| 1778231880 | 22.78° C | 81% | 969 hPa | - | - | 0 W/m² | - |
| 1778231568 | 22.78° C | 84% | 969 hPa | - | - | 0 W/m² | - |
| 1778231257 | 23.33° C | 87% | 969 hPa | - | - | 0 W/m² | - |
| 1778231089 | 24.44° C | 91% | 969 hPa | - | - | 0 W/m² | - |
| 1778230778 | 23.33° C | 93% | 969 hPa | - | - | 0 W/m² | - |
| 1778230467 | 23.33° C | 93% | 969 hPa | - | - | 0 W/m² | - |
| 1778230155 | 23.33° C | 94% | 969 hPa | - | - | 0 W/m² | - |
| 1778229844 | 23.33° C | 92% | 969 hPa | - | - | 0 W/m² | - |
| 1778229532 | 23.33° C | 89% | 969 hPa | - | - | 0 W/m² | - |
| 1778229221 | 23.89° C | 85% | 969 hPa | - | - | 0 W/m² | - |
| 1778228910 | 22.22° C | 81% | 969 hPa | - | - | 0 W/m² | - |
| 1778228599 | 23.33° C | 85% | 969 hPa | - | - | 0 W/m² | - |
| 1778228287 | 23.33° C | 82% | 969 hPa | - | - | 0 W/m² | - |
| 1778227976 | 23.33° C | 82% | 969 hPa | - | - | 0 W/m² | - |
| 1778227664 | 23.33° C | 82% | 969 hPa | - | - | 0 W/m² | - |
| 1778227353 | 23.89° C | 76% | 969 hPa | - | - | 0 W/m² | - |
| 1778227042 | 22.78° C | 81% | 969 hPa | - | - | 0 W/m² | - |
| 1778226730 | 22.78° C | 80% | 969 hPa | - | - | 0 W/m² | - |
| 1778226419 | 22.78° C | 80% | 969 hPa | - | - | 0 W/m² | - |
| 1778226108 | 22.78° C | 80% | 969 hPa | - | - | 0 W/m² | - |
| 1778225796 | 22.22° C | 81% | 969 hPa | - | - | 0 W/m² | - |
| 1778225485 | 22.78° C | 83% | 969 hPa | - | - | 0 W/m² | - |
| 1778225174 | 22.78° C | 78% | 969 hPa | - | - | 0 W/m² | - |
| 1778224862 | 22.22° C | 80% | 969 hPa | - | - | 0 W/m² | - |
* Rain since midnight (hover to see other rain measurements)
** Current wind speed in m/s (hover to see current wind gust speed)